FW0197 Weather Reports


time (UTC)temp
C
wind
direction
speed
KPH
gust
KPH
rain 1hr
cm
rain 24hr
cm
rain mn
cm
humidity
%
barometer
mb
20260505022601 16 130 0.0 0.0 0.00 0.00 0.00 71 1014.3
20260505022049 16 130 0.0 0.0 0.00 0.00 0.00 71 1014.3
20260505021537 16 130 0.0 0.0 0.00 0.00 0.00 71 1014.1
20260505021052 16 130 0.0 0.0 0.00 0.00 0.00 71 1014.2
20260505020559 16 130 0.0 0.0 0.00 0.00 0.00 71 1014.2
20260505020050 16 130 0.0 0.0 0.00 0.00 0.00 68 1014.1
20260505015532 17 130 0.0 0.0 0.00 0.00 0.00 67 1014.1
20260505015052 17 130 0.0 0.0 0.00 0.00 0.00 66 1013.9
20260505014600 17 130 0.0 0.0 0.00 0.00 0.00 65 1014.0
20260505014049 17 130 0.0 0.0 0.00 0.00 0.00 64 1013.9
20260505013557 17 130 0.0 0.0 0.00 0.00 0.00 62 1013.9
20260505013045 18 130 0.0 0.0 0.00 0.00 0.00 62 1013.8
20260505012552 18 130 0.0 0.0 0.00 0.00 0.00 62 1013.8
20260505012121 18 130 0.0 0.0 0.00 0.00 0.00 61 1013.7
20260505011550 18 130 0.0 0.0 0.00 0.00 0.00 60 1013.7
20260505011041 18 130 0.0 0.0 0.00 0.00 0.00 59 1013.8
20260505010533 19 130 0.0 0.0 0.00 0.00 0.00 58 1013.8
20260505010057 19 130 0.0 0.0 0.00 0.00 0.00 57 1013.7
20260505005545 20 130 0.0 0.0 0.00 0.00 0.00 56 1013.8
20260505005101 20 130 0.0 0.0 0.00 0.00 0.00 54 1013.8
20260505004549 20 130 0.0 0.0 0.00 0.00 0.00 54 1013.9
20260505004120 20 130 0.0 0.0 0.00 0.00 0.00 53 1013.8
20260505003548 21 130 0.0 0.0 0.00 0.00 0.00 52 1013.8
20260505003055 21 130 0.0 0.0 0.00 0.00 0.00 51 1013.8
20260505002600 21 130 0.0 0.0 0.00 0.00 0.00 51 1013.7
20260505002050 21 130 0.0 0.0 0.00 0.00 0.00 50 1013.6
20260505001601 21 130 0.0 0.0 0.00 0.00 0.00 49 1013.6
20260505001051 22 130 0.0 0.0 0.00 0.00 0.00 49 1013.7
20260505000600 22 130 0.0 0.0 0.00 0.00 0.00 49 1013.8
20260505000111 22 130 0.0 0.0 0.00 0.00 0.00 48 1013.9
20260504235538 22 130 0.0 0.0 0.00 0.00 0.00 48 1014.0
20260504235113 22 130 0.0 0.0 0.00 0.00 0.00 48 1014.0
20260504234601 23 130 0.0 0.0 0.00 0.00 0.00 48 1013.9
20260504234049 23 182 0.0 0.0 0.00 0.00 0.00 46 1013.9
20260504233558 23 182 0.0 0.0 0.00 0.00 0.00 45 1014.0
20260504233048 23 125 0.0 0.0 0.00 0.00 0.00 46 1013.9
20260504232557 23 125 0.0 0.0 0.00 0.00 0.00 45 1013.9
20260504232104 23 113 3.2 0.0 0.00 0.00 0.00 43 1013.9
20260504231549 23 108 1.6 0.0 0.00 0.00 0.00 42 1014.0
20260504231058 23 131 0.0 0.0 0.00 0.00 0.00 42 1013.9
20260504230603 24 173 0.0 0.0 0.00 0.00 0.00 45 1014.1
20260504230052 24 161 0.0 0.0 0.00 0.00 0.00 44 1014.1
20260504225544 24 129 1.6 0.0 0.00 0.00 0.00 41 1014.1
20260504225053 24 101 0.0 0.0 0.00 0.00 0.00 41 1014.1
20260504224558 25 162 3.2 0.0 0.00 0.00 0.00 41 1014.1
20260504224048 25 239 0.0 0.0 0.00 0.00 0.00 45 1014.0
20260504223556 25 239 0.0 0.0 0.00 0.00 0.00 44 1014.1
20260504223047 25 125 0.0 0.0 0.00 0.00 0.00 42 1014.2
20260504222555 25 195 1.6 0.0 0.00 0.00 0.00 42 1014.3
20260504222040 25 120 1.6 0.0 0.00 0.00 0.00 41 1014.3
20260504221553 25 126 0.0 0.0 0.00 0.00 0.00 41 1014.2
20260504221058 25 236 0.0 0.0 0.00 0.00 0.00 42 1014.2
20260504220549 25 107 0.0 0.0 0.00 0.00 0.00 44 1014.2
20260504220057 25 243 1.6 0.0 0.00 0.00 0.00 43 1014.3
20260504215548 25 231 0.0 0.0 0.00 0.00 0.00 43 1014.3
20260504215059 25 121 0.0 0.0 0.00 0.00 0.00 41 1014.2
20260504214548 25 152 3.2 0.0 0.00 0.00 0.00 41 1014.3
20260504214056 25 257 0.0 0.0 0.00 0.00 0.00 42 1014.3
20260504213547 25 256 0.0 0.0 0.00 0.00 0.00 41 1014.4
20260504213044 25 260 0.0 0.0 0.00 0.00 0.00 41 1014.5
20260504212553 25 271 0.0 0.0 0.00 0.00 0.00 43 1014.4
20260504212102 25 153 0.0 0.0 0.00 0.00 0.00 45 1014.4
20260504211551 25 102 1.6 0.0 0.00 0.00 0.00 43 1014.4
20260504211057 25 251 0.0 0.0 0.00 0.00 0.00 43 1014.2
20260504210554 25 236 0.0 0.0 0.00 0.00 0.00 43 1014.4
20260504210104 25 62 0.0 0.0 0.00 0.00 0.00 42 1014.4
20260504205531 25 194 0.0 0.0 0.00 0.00 0.00 42 1014.5
20260504205051 25 222 1.6 0.0 0.00 0.00 0.00 41 1014.5
20260504204600 25 262 0.0 0.0 0.00 0.00 0.00 41 1014.5
20260504204111 25 259 1.6 0.0 0.00 0.00 0.00 41 1014.4
20260504203617 25 251 0.0 0.0 0.00 0.00 0.00 41 1014.6
20260504203106 25 183 0.0 0.0 0.00 0.00 0.00 41 1014.6
20260504202552 25 94 3.2 0.0 0.00 0.00 0.00 40 1014.5
20260504202052 25 158 1.6 0.0 0.00 0.00 0.00 41 1014.5
20260504201557 25 123 0.0 0.0 0.00 0.00 0.00 41 1014.7
20260504201048 25 118 3.2 0.0 0.00 0.00 0.00 41 1014.7
20260504200616 26 74 1.6 0.0 0.00 0.00 0.00 41 1014.8
20260504195549 25 164 0.0 0.0 0.00 0.00 0.00 45 1014.9
20260504195037 25 110 0.0 0.0 0.00 0.00 0.00 45 1015.1
20260504194553 25 162 0.0 0.0 0.00 0.00 0.00 43 1015.2
20260504194102 25 143 6.4 0.0 0.00 0.00 0.00 44 1015.4
20260504193549 25 268 0.0 0.0 0.00 0.00 0.00 45 1015.4
20260504193035 26 129 0.0 0.0 0.00 0.00 0.00 43 1015.3
20260504192555 26 116 6.4 0.0 0.00 0.00 0.00 45 1015.4
20260504192041 26 148 1.6 0.0 0.00 0.00 0.00 41 1015.4
20260504191559 26 147 0.0 0.0 0.00 0.00 0.00 41 1015.4
20260504191046 26 159 4.8 0.0 0.00 0.00 0.00 42 1015.4
20260504190536 27 33 0.0 0.0 0.00 0.00 0.00 45 1015.6
20260504190053 27 33 0.0 0.0 0.00 0.00 0.00 41 1015.6
20260504185541 27 33 1.6 0.0 0.00 0.00 0.00 40 1015.7
20260504185056 28 130 1.6 0.0 0.00 0.00 0.00 42 1015.9
20260504184604 27 105 1.6 0.0 0.00 0.00 0.00 43 1015.9
20260504184052 27 155 1.6 0.0 0.00 0.00 0.00 43 1015.9
20260504183558 27 130 0.0 0.0 0.00 0.00 0.00 41 1016.0
20260504183046 27 227 1.6 0.0 0.00 0.00 0.00 45 1016.0
20260504182555 27 220 0.0 0.0 0.00 0.00 0.00 43 1016.1
20260504182109 27 112 0.0 0.0 0.00 0.00 0.00 41 1016.2
20260504181619 27 112 1.6 0.0 0.00 0.00 0.00 42 1016.2
20260504181105 27 61 1.6 0.0 0.00 0.00 0.00 44 1016.2
20260504180533 27 163 1.6 0.0 0.00 0.00 0.00 45 1016.3
20260504180052 26 82 0.0 0.0 0.00 0.00 0.00 45 1016.4
20260504175559 26 82 0.0 0.0 0.00 0.00 0.00 43 1016.5
20260504175054 26 70 0.0 0.0 0.00 0.00 0.00 45 1016.5
20260504174541 26 118 1.6 0.0 0.00 0.00 0.00 42 1016.6
20260504174053 26 109 0.0 0.0 0.00 0.00 0.00 43 1016.6
20260504173600 26 110 0.0 0.0 0.00 0.00 0.00 43 1016.7
20260504173048 26 64 1.6 0.0 0.00 0.00 0.00 44 1016.7
20260504172554 26 41 0.0 0.0 0.00 0.00 0.00 42 1016.7
20260504172101 26 132 1.6 0.0 0.00 0.00 0.00 44 1016.8
20260504171609 26 134 0.0 0.0 0.00 0.00 0.00 43 1016.7
20260504171036 26 141 1.6 0.0 0.00 0.00 0.00 45 1017.0
20260504170552 26 176 0.0 0.0 0.00 0.00 0.00 45 1017.1
20260504151058 24 198 0.0 0.0 0.00 0.00 0.00 56 1017.7
20260504150609 23 198 0.0 0.0 0.00 0.00 0.00 55 1017.8
20260504141047 21 274 0.0 0.0 0.00 0.00 0.00 63 1018.1
20260504140556 20 251 0.0 0.0 0.00 0.00 0.00 66 1018.0
20260504130549 13 260 0.0 0.0 0.00 0.00 0.00 85 1018.3
20260504120105 7 260 0.0 0.0 0.00 0.00 0.00 100 1018.0
20260504110557 6 260 0.0 0.0 0.00 0.00 0.00 98 1017.7
20260504100543 7 260 0.0 0.0 0.00 0.00 0.00 98 1017.5
20260504081551 7 260 0.0 0.0 0.00 0.00 0.00 97 1017.4
20260504081059 7 260 0.0 0.0 0.00 0.00 0.00 97 1017.5
20260504080549 7 260 0.0 0.0 0.00 0.00 0.00 96 1017.5
20260504050538 10 260 0.0 0.0 0.00 0.00 0.00 92 1018.7
20260504050106 10 260 0.0 0.0 0.00 0.00 0.00 92 1018.8
20260504045531 10 260 0.0 0.0 0.00 0.00 0.00 92 1018.8
20260504045052 10 260 0.0 0.0 0.00 0.00 0.00 92 1018.7
20260504044601 10 260 0.0 0.0 0.00 0.00 0.00 92 1018.8
20260504044051 10 260 0.0 0.0 0.00 0.00 0.00 92 1018.8
20260504043602 10 260 0.0 0.0 0.00 0.00 0.00 92 1018.9
20260504043049 10 260 0.0 0.0 0.00 0.00 0.00 91 1018.8
20260504042600 10 260 0.0 0.0 0.00 0.00 0.00 91 1018.8
20260504042047 10 260 0.0 0.0 0.00 0.00 0.00 91 1018.8
20260504041534 10 260 0.0 0.0 0.00 0.00 0.00 90 1018.7
20260504041053 10 260 0.0 0.0 0.00 0.00 0.00 90 1018.8
20260504040540 10 260 0.0 0.0 0.00 0.00 0.00 89 1019.0
20260504040031 10 260 0.0 0.0 0.00 0.00 0.00 89 1019.1
20260504035553 11 260 0.0 0.0 0.00 0.00 0.00 88 1019.1
20260504035120 11 260 0.0 0.0 0.00 0.00 0.00 88 1019.2
20260504034550 11 260 0.0 0.0 0.00 0.00 0.00 87 1019.2
20260504034059 11 260 0.0 0.0 0.00 0.00 0.00 87 1019.2
20260504033548 11 260 0.0 0.0 0.00 0.00 0.00 87 1019.3
20260504033037 11 260 0.0 0.0 0.00 0.00 0.00 87 1019.3
20260504032555 11 260 0.0 0.0 0.00 0.00 0.00 87 1019.2
20260504032048 11 260 0.0 0.0 0.00 0.00 0.00 86 1019.3
20260504031556 11 260 0.0 0.0 0.00 0.00 0.00 85 1019.2
20260504031046 11 260 0.0 0.0 0.00 0.00 0.00 85 1019.2
20260504030618 11 260 0.0 0.0 0.00 0.00 0.00 85 1019.2
20260504030046 11 260 0.0 0.0 0.00 0.00 0.00 84 1019.1
20260504025553 12 260 0.0 0.0 0.00 0.00 0.00 83 1019.1
20260504025046 12 260 0.0 0.0 0.00 0.00 0.00 83 1019.1
20260504024552 12 260 0.0 0.0 0.00 0.00 0.00 83 1019.1
20260504024101 12 260 0.0 0.0 0.00 0.00 0.00 82 1019.0
20260504023551 12 260 0.0 0.0 0.00 0.00 0.00 82 1018.9
20260504023041 12 260 0.0 0.0 0.00 0.00 0.00 81 1019.0